This is the latest recevied weather packets stored in our database for station/object K4AVM-13. If no packets are shown the sender has not sent any weather packets the latest 1 day(s).
| Time | Temp. | Humidity | Pressure | Rain* | Wind** | Luminosity | Snow |
|---|---|---|---|---|---|---|---|
| 1778083514 | 16.67° C | 95% | 1012.8 hPa | 0 mm | - | 78 W/m² | - |
| 1778083211 | 16.67° C | 95% | 1013 hPa | 0 mm | - | 86 W/m² | - |
| 1778080591 | 16.67° C | 98% | 1013.8 hPa | 0 mm | - | 84 W/m² | - |
| 1778079984 | 16.11° C | 97% | 1013.9 hPa | 0 mm | - | 163 W/m² | - |
| 1778079075 | 16.11° C | 95% | 1014 hPa | 4.83 mm | - | 63 W/m² | - |
| 1778078772 | 16.11° C | 94% | 1014.2 hPa | 3.05 mm | - | 36 W/m² | - |
| 1778076656 | 17.78° C | 86% | 1014.1 hPa | 3.05 mm | - | 134 W/m² | - |
| 1778076353 | 17.78° C | 83% | 1013.8 hPa | 1.78 mm | - | 86 W/m² | - |
| 1778075747 | 18.89° C | 74% | 1013.9 hPa | 0 mm | - | 69 W/m² | - |
| 1778075443 | 18.89° C | 73% | 1013.9 hPa | 0 mm | - | 66 W/m² | - |
| 1778074533 | 18.89° C | 75% | 1013.7 hPa | 0 mm | - | 62 W/m² | - |
| 1778074230 | 18.89° C | 75% | 1013.8 hPa | 0 mm | - | 53 W/m² | - |
| 1778073927 | 18.89° C | 75% | 1013.8 hPa | 0 mm | - | 103 W/m² | - |
| 1778073018 | 18.89° C | 75% | 1013.7 hPa | 0 mm | - | 130 W/m² | - |
| 1778070295 | 18.89° C | 76% | 1013.3 hPa | 0 mm | - | 98 W/m² | - |
| 1778067271 | 17.22° C | 79% | 1013.3 hPa | 0 mm | - | 75 W/m² | - |
| 1778066967 | 17.22° C | 79% | 1013.4 hPa | 0 mm | - | 66 W/m² | - |
| 1778066665 | 17.22° C | 80% | 1013.5 hPa | 0 mm | - | 54 W/m² | - |
| 1778066060 | 17.22° C | 79% | 1013.4 hPa | 0 mm | - | 40 W/m² | - |
| 1778064847 | 17.22° C | 79% | 1013.6 hPa | 0 mm | - | 23 W/m² | - |
| 1778063940 | 17.22° C | 79% | 1013.7 hPa | 0 mm | - | 10 W/m² | - |
| 1778063637 | 17.22° C | 79% | 1013.8 hPa | 0 mm | - | 8 W/m² | - |
| 1778062729 | 17.22° C | 78% | 1013.4 hPa | 0 mm | - | 4 W/m² | - |
| 1778062123 | 17.22° C | 78% | 1013.4 hPa | 0 mm | - | 2 W/m² | - |
| 1778060913 | 17.22° C | 77% | 1013.4 hPa | 0 mm | - | 0 W/m² | - |
* Rain latest hour (hover to see other rain measurements)
** Current wind speed in m/s (hover to see current wind gust speed)